This is the latest recevied weather packets stored in our database for station/object EA7HQL-10. If no packets are shown the sender has not sent any weather packets the latest 10 day(s).
| Time | Temp. | Humidity | Pressure | Rain* | Wind** | Luminosity | Snow |
|---|---|---|---|---|---|---|---|
| 1777984384 | 25° C | 36% | 1010.8 hPa | 0 mm | - | - | - |
| 1777984124 | 24.44° C | 36% | 1010.9 hPa | 0 mm | - | - | - |
| 1777983864 | 23.89° C | 36% | 1010.8 hPa | 0 mm | - | - | - |
| 1777983589 | 23.89° C | 36% | 1010.8 hPa | 0 mm | - | - | - |
| 1777983334 | 23.89° C | 36% | 1010.6 hPa | 0 mm | - | - | - |
| 1777983068 | 23.89° C | 36% | 1011.1 hPa | 0 mm | - | - | - |
| 1777982774 | 24.44° C | 35% | 1011.1 hPa | 0 mm | - | - | - |
| 1777982514 | 24.44° C | 37% | 1011 hPa | 0 mm | - | - | - |
| 1777982224 | 23.89° C | 37% | 1011 hPa | 0 mm | - | - | - |
| 1777981924 | 23.33° C | 39% | 1011.1 hPa | 0 mm | - | - | - |
| 1777981659 | 23.33° C | 40% | 1011.1 hPa | 0 mm | - | - | - |
| 1777981397 | 22.78° C | 39% | 1011.4 hPa | 0 mm | - | - | - |
| 1777981124 | 22.78° C | 39% | 1011.3 hPa | 0 mm | - | - | - |
| 1777980854 | 23.33° C | 39% | 1011.4 hPa | 0 mm | - | - | - |
| 1777980604 | 22.78° C | 40% | 1011.2 hPa | 0 mm | - | - | - |
| 1777980314 | 23.33° C | 39% | 1011.4 hPa | 0 mm | - | - | - |
| 1777980049 | 23.33° C | 39% | 1011.5 hPa | 0 mm | - | - | - |
| 1777979784 | 23.89° C | 38% | 1011.4 hPa | 0 mm | - | - | - |
| 1777979519 | 22.78° C | 40% | 1011.5 hPa | 0 mm | - | - | - |
| 1777979274 | 23.33° C | 39% | 1011.6 hPa | 0 mm | - | - | - |
| 1777979014 | 22.78° C | 40% | 1011.7 hPa | 0 mm | - | - | - |
| 1777978714 | 22.78° C | 40% | 1011.7 hPa | 0 mm | - | - | - |
| 1777978439 | 22.78° C | 39% | 1011.8 hPa | 0 mm | - | - | - |
| 1777978164 | 22.78° C | 39% | 1011.8 hPa | 0 mm | - | - | - |
| 1777977914 | 22.22° C | 38% | 1011.7 hPa | 0 mm | - | - | - |
* Rain latest hour (hover to see other rain measurements)
** Current wind speed in m/s (hover to see current wind gust speed)